Location: Cottbus
(51.7000°N, 14.3000°E)
Time: 12:40:16
(UTC+02:00)

STARLINK-2672 - Pass Details

Date: 01 August 2021
Orbit: 546 x 548 km, 53.1° (Epoch: 23 September)

Event Time Altitude Azimuth Distance (km) Brightness Sun altitude
Rises 21:19:18 0° 285° (WNW) 2,722 8.7 -4.4°
Reaches altitude 10° 21:22:19 10° 262° (W) 1,824 7.0 -4.8°
Maximum altitude 21:24:41 15° 226° (SW) 1,524 6.0 -5.1°
Drops below altitude 10° 21:27:04 10° 191° (S) 1,816 6.0 -5.4°
Enters shadow 21:29:58 - 168° (SSE) 2,668 6.7 -5.8°
